Theta_e
313 313 313 313 313 312 312 312 312 312 312 312 313 312 312 311 311 311 311 313 315 317 314 313 314 315 311 309 311 310 308 308 311 314 313 314 314 315 315 315 319 320 337 351 351
313 313 313 312 312 312 312 312 312 312 312 312 312 311 311 311 311 311 311 312 313 315 317 317 316 314 307 307 309 309 307 309 310 312 313 314 315 315 317 314 316 317 331 351 351
313 312 312 311 311 311 311 311 311 311 312 312 311 311 311 310 311 312 317 318 317 313 318 318 316 313 309 308 308 309 310 310 312 312 312 313 314 315 316 316 316 315 317 319 321
312 312 312 311 311 311 311 311 310 311 311 311 311 311 310 311 309 316 318 318 317 317 319 319 316 312 309 309 308 310 310 312 311 313 312 313 313 315 316 315 314 314 314 316 316
311 311 311 312 311 310 311 309 308 308 308 310 310 310 310 310 312 310 312 313 315 319 324 319 317 310 310 310 309 308 309 310 311 312 313 312 313 313 313 314 314 314 314 313 313
310 310 310 310 311 311 308 307 307 307 308 309 310 310 311 311 308 308 311 311 316 322 320 316 314 312 310 311 309 309 310 311 310 307 309 312 313 313 314 314 314 314 313 313 313
310 310 309 309 308 308 308 307 306 306 307 309 310 311 311 310 307 309 310 310 314 319 317 317 316 312 310 313 310 310 310 310 310 309 308 311 312 312 313 314 313 313 312 312 312
308 308 306 306 307 308 308 307 306 303 308 309 311 313 312 311 311 310 311 312 314 318 317 316 316 314 311 310 312 310 308 310 310 310 310 312 313 313 313 313 313 313 312 312 312
305 304 303 305 306 308 307 305 302 304 309 310 313 313 313 313 314 316 315 314 317 316 318 319 314 312 312 311 310 309 311 309 312 311 313 311 313 313 313 312 312 312 312 313 313
304 301 301 301 301 302 302 302 303 310 310 313 314 316 314 316 316 318 318 316 318 318 319 318 314 313 312 307 313 310 312 312 312 313 312 312 313 312 312 312 313 312 314 314 314
303 301 301 301 302 303 304 304 307 311 313 316 316 316 316 315 316 317 318 317 318 318 320 318 318 319 315 313 312 314 314 314 314 314 313 312 314 314 313 312 313 313 314 314 314
302 302 302 301 302 303 306 304 308 311 314 315 316 316 315 315 316 316 315 319 319 320 315 319 322 319 317 315 313 314 315 315 314 315 312 313 313 314 313 313 313 315 314 315 316
301 301 301 302 302 307 304 306 308 308 309 314 314 317 316 316 318 317 317 318 319 319 318 318 321 320 319 318 318 315 315 315 315 315 314 314 315 315 315 315 316 316 316 316 317
301 302 302 303 303 304 303 301 304 308 315 317 316 318 316 317 318 316 316 318 317 319 318 317 318 320 321 320 319 317 316 316 316 317 315 315 315 316 317 317 318 318 315 319 324
301 302 303 304 303 303 303 304 307 312 314 314 322 320 315 316 319 321 317 319 318 317 316 319 319 320 322 321 320 320 317 317 317 317 314 315 316 314 316 317 317 317 317 319 329
301 302 304 303 303 303 304 306 308 316 317 317 325 325 322 319 321 323 320 319 317 318 317 318 319 320 320 321 322 320 319 318 317 314 315 314 316 316 316 318 318 318 320 324 327
301 302 302 304 302 306 306 307 312 319 313 320 325 321 324 325 326 327 325 325 323 322 321 319 320 321 321 322 321 319 319 320 318 315 314 313 316 315 317 318 320 320 320 325 324
301 302 303 305 307 305 307 312 317 314 314 314 314 315 321 322 324 324 327 326 324 323 324 326 326 324 322 321 319 316 318 314 316 318 314 317 317 315 318 321 323 324 325 326 327
302 303 305 310 308 308 308 316 315 315 313 313 316 319 324 321 323 322 326 326 325 322 326 328 328 324 322 321 319 320 316 315 316 326 322 320 320 328 328 324 325 327 329 329 331
302 304 305 311 309 311 313 315 312 311 312 314 320 321 324 325 323 323 327 325 324 324 322 326 328 322 322 322 321 320 315 317 321 327 330 324 333 336 332 331 326 325 324 325 331
302 302 309 311 311 315 318 316 317 317 316 319 320 322 322 324 323 325 327 325 324 322 322 322 322 323 325 324 323 320 319 317 319 321 325 328 330 331 330 327 327 324 324 324 322
301 301 309 307 309 312 316 314 312 314 315 316 320 321 323 318 317 317 325 324 323 324 325 319 324 324 322 324 323 325 321 317 320 321 322 330 330 330 328 326 327 327 327 326 325
302 300 308 309 314 312 311 311 312 314 316 317 319 319 320 321 321 322 323 321 323 324 327 322 323 326 325 324 325 327 321 319 319 322 328 328 328 328 329 327 325 324 324 325 326
302 307 308 304 307 308 308 310 313 314 315 315 317 319 316 317 319 323 323 323 322 324 325 325 323 323 324 328 328 328 326 328 323 325 328 328 333 330 328 328 326 323 319 320 321
306 310 306 304 305 305 307 311 311 313 313 314 317 317 315 315 317 319 322 322 322 323 324 327 326 325 323 327 326 328 329 329 329 327 326 328 330 327 326 327 325 323 322 324 326
306 305 305 304 305 307 308 310 313 312 312 316 318 316 313 314 314 320 319 322 321 323 324 321 326 325 323 323 324 328 327 328 329 329 328 327 331 327 323 323 321 323 322 324 322
302 303 304 305 305 305 310 308 311 309 312 312 315 317 314 313 315 317 317 319 318 322 323 321 324 327 327 329 325 327 326 326 326 327 330 330 327 325 326 321 320 320 322 321 319
Wind_Speed
18 19 19 19 18 18 19 20 19 21 22 21 20 21 22 25 29 26 13 25 22 10 16 13 9 6 7 4 4 4 3 5 6 5 6 3 6 6 6 7 6 8 6 16 31
18 19 18 17 18 18 19 20 21 22 23 23 22 23 23 26 29 20 38 34 32 23 13 12 5 4 2 5 3 5 6 9 7 5 7 9 2 4 5 9 6 8 9 16 21
19 18 17 17 18 18 19 20 20 19 21 21 21 21 23 22 7 9 7 5 12 27 22 11 7 4 6 4 5 6 7 8 5 12 12 15 3 3 1 4 4 3 4 8 5
18 18 19 21 18 18 19 19 20 20 20 18 18 19 19 11 7 2 4 10 15 18 19 11 5 3 5 8 7 5 6 10 8 14 8 12 3 4 5 8 5 7 4 3 3
20 22 22 19 21 21 21 23 23 20 19 20 18 15 10 4 14 24 21 21 15 23 25 14 11 6 4 5 8 9 5 6 10 15 19 12 15 9 8 8 8 8 10 6 7
22 23 23 23 24 24 27 29 28 27 23 18 14 12 6 16 17 10 11 13 9 21 19 14 8 11 4 7 8 5 14 19 15 12 12 14 16 4 5 8 7 9 12 12 10
25 26 27 29 31 31 32 32 31 32 27 20 15 11 11 30 11 11 20 26 7 22 10 25 23 8 10 6 7 10 10 12 12 8 9 8 17 11 7 6 9 10 11 11 12
27 29 31 31 32 33 35 37 38 37 27 21 14 14 11 21 24 31 27 26 17 24 26 19 26 10 2 6 7 5 6 17 9 8 7 10 26 11 7 8 11 11 10 9 12
30 31 31 30 30 32 37 41 42 36 22 11 8 7 11 12 12 21 24 15 8 20 25 25 9 7 4 6 5 5 11 7 4 9 8 12 23 8 10 9 10 11 11 12 13
28 30 30 30 30 31 35 38 25 5 5 7 6 6 8 7 7 7 7 24 6 5 11 12 6 8 12 5 13 5 2 5 7 5 8 10 19 7 8 10 14 11 14 13 14
29 31 32 32 34 33 33 15 4 2 4 9 12 10 13 12 20 7 3 10 5 3 11 7 6 20 16 13 5 5 6 8 5 13 6 10 19 17 15 10 9 10 10 9 11
32 33 35 34 38 37 15 3 6 5 11 18 27 29 42 23 17 20 19 7 7 13 7 8 21 9 8 7 10 10 9 16 6 13 6 14 19 21 14 14 15 14 10 10 8
35 35 34 35 39 5 10 15 19 23 6 11 17 14 15 19 19 24 6 9 7 11 12 15 9 17 11 12 12 13 15 13 12 8 8 6 16 9 8 14 8 8 9 7 10
39 38 37 34 13 16 17 13 18 19 4 8 5 5 11 10 8 23 13 8 6 17 12 12 19 14 20 16 13 15 16 13 17 9 8 5 6 4 6 9 7 9 7 8 6
42 44 36 22 19 8 12 18 22 2 5 6 3 4 5 13 4 4 25 10 12 7 8 12 17 18 19 22 18 16 11 15 20 15 5 8 2 7 4 7 7 9 7 7 7
46 48 36 21 12 26 18 14 7 3 8 4 5 10 3 7 9 8 7 11 6 8 13 10 9 18 21 19 19 18 15 11 16 4 6 17 7 5 5 7 5 3 9 7 13
50 47 47 20 6 4 5 2 3 3 8 2 6 10 3 5 6 11 9 11 7 11 12 11 16 12 13 17 21 18 12 4 4 5 8 7 6 7 6 5 5 6 12 8 8
51 47 33 16 9 19 2 4 2 6 9 17 16 20 4 3 4 12 5 9 13 9 3 5 8 14 12 18 8 5 16 5 5 4 5 1 5 6 8 2 4 12 14 12 12
50 32 21 7 13 16 4 2 5 3 8 12 24 8 1 2 4 5 5 6 5 14 8 5 7 3 14 11 10 12 6 17 2 0 3 1 6 5 15 13 11 19 12 13 11
31 12 16 5 20 9 3 4 5 7 16 19 9 8 7 5 4 3 7 6 7 14 10 9 3 5 5 2 11 11 5 4 2 4 3 4 3 1 10 11 3 13 8 6 10
13 4 10 16 7 3 2 4 11 19 18 6 5 8 10 14 7 7 8 5 10 16 13 11 10 4 4 8 13 6 7 4 7 6 4 2 1 3 6 8 8 7 6 10 9
8 4 8 23 1 0 2 5 19 21 22 6 8 14 3 1 3 2 6 3 2 1 5 6 4 5 8 1 4 5 5 5 5 4 4 5 3 1 9 11 6 7 9 9 14
6 3 9 8 4 6 6 12 17 15 14 6 3 2 4 4 5 13 4 3 1 2 3 4 0 2 2 2 2 5 6 12 5 5 7 7 3 3 11 10 6 6 7 9 12
3 4 4 4 2 4 8 7 12 10 12 12 9 7 3 5 3 7 4 3 3 3 7 1 4 5 6 3 2 6 3 5 6 4 5 5 7 7 11 7 2 4 8 10 12
2 2 3 4 8 13 10 5 13 12 6 18 3 2 0 5 5 5 6 2 2 2 2 2 7 4 3 3 5 2 5 4 4 3 5 6 9 12 15 15 9 5 3 11 10
3 3 4 6 7 7 6 4 13 20 12 11 10 10 9 6 10 8 10 4 4 5 3 3 2 4 3 4 1 8 6 6 4 7 6 3 7 4 5 10 10 8 4 10 12
5 5 3 4 4 6 5 11 19 18 7 15 16 12 7 13 8 10 14 13 10 6 5 4 4 3 5 15 12 3 13 9 6 5 5 5 5 10 5 7 3 12 16 16 13
Wind_Direction
348 345 341 339 336 330 327 326 323 322 323 323 325 328 328 325 320 310 238 252 257 264 239 221 257 242 221 222 215 146 117 219 237 191 246 268 11 316 277 344 337 349 130 162 160
341 340 337 333 329 328 326 322 321 321 322 324 326 329 328 332 323 272 279 280 263 231 202 203 213 186 200 216 221 167 176 218 219 217 269 282 5 314 337 345 343 3 13 137 154
337 335 332 329 325 322 319 317 315 314 315 317 321 323 328 334 297 249 15 37 270 221 207 200 229 183 194 209 214 198 218 221 270 243 259 275 303 241 231 300 224 308 313 332 32
332 331 326 320 321 320 316 315 313 312 310 309 309 317 324 312 281 179 196 39 14 201 212 225 226 197 212 206 209 250 230 212 254 271 268 271 240 254 201 240 252 272 201 179 323
330 326 318 325 323 320 316 318 316 311 305 304 306 312 330 271 247 249 270 289 313 182 192 200 206 162 207 211 226 231 235 258 251 252 260 270 263 251 212 242 289 304 310 280 188
331 329 330 328 324 320 322 321 317 313 308 300 296 299 257 258 249 275 293 274 251 190 209 198 198 207 259 231 203 237 217 244 253 255 259 254 262 212 237 223 243 284 285 288 282
329 326 323 322 324 324 322 319 315 309 301 295 284 264 244 247 257 269 265 277 265 221 203 210 212 186 170 292 232 240 262 266 242 239 237 236 263 233 221 253 242 239 255 267 276
318 320 322 323 320 320 319 317 313 305 293 286 268 249 252 267 276 274 269 269 262 220 221 223 216 223 197 313 327 207 211 250 263 242 257 181 256 248 216 233 254 255 255 258 258
327 326 326 326 323 320 317 316 310 304 287 254 232 198 259 284 257 278 246 233 236 228 223 228 182 207 213 216 315 220 248 234 257 208 221 200 255 237 230 219 236 252 257 251 256
333 333 331 327 325 320 320 314 325 325 156 179 224 200 257 242 208 262 231 205 195 213 213 217 203 205 225 171 218 236 229 232 215 250 202 247 254 258 250 218 236 234 248 237 229
334 334 333 329 327 327 325 335 9 50 209 203 198 228 280 223 299 298 282 165 180 189 204 210 195 223 224 229 245 262 232 254 230 236 216 249 262 259 252 237 233 237 237 240 237
337 336 335 332 328 327 316 241 228 321 293 232 241 243 245 255 277 274 276 191 168 214 183 234 232 230 216 226 200 229 255 255 295 260 202 252 257 253 234 230 229 229 239 246 241
337 336 337 333 330 335 312 252 312 319 276 272 242 238 240 194 232 250 207 191 183 198 207 221 248 212 226 233 232 227 236 249 247 293 265 274 287 233 224 212 217 236 239 234 229
337 334 332 332 330 325 292 327 315 327 302 280 238 255 177 140 234 226 211 199 209 202 206 236 231 257 212 234 226 233 232 246 259 261 259 134 270 247 200 202 207 229 217 188 172
336 333 325 322 290 280 293 325 329 105 327 273 331 36 127 166 226 197 196 192 197 190 178 216 196 222 233 228 234 251 240 241 249 250 260 263 202 268 240 234 241 228 173 239 106
335 331 320 313 256 274 307 325 337 66 250 289 31 7 75 294 315 334 161 229 176 210 231 236 227 207 229 237 236 245 247 302 294 227 238 246 164 269 194 199 247 158 150 163 115
334 328 318 267 230 121 17 344 54 197 310 236 47 360 12 312 285 306 200 210 194 193 226 243 249 260 263 224 235 223 222 204 274 193 220 200 190 214 246 209 243 226 159 148 108
334 329 321 285 267 233 338 66 215 275 264 310 345 333 315 13 279 231 277 197 198 232 152 182 251 233 241 227 194 213 195 181 208 225 221 276 249 258 268 54 126 133 129 121 104
335 332 313 317 162 149 89 155 224 252 308 342 326 305 203 295 228 342 237 219 238 190 183 175 242 298 210 209 174 241 195 203 173 345 83 283 318 38 356 111 132 128 127 120 110
333 318 302 313 158 132 60 238 254 287 296 306 295 268 289 306 302 325 230 223 220 209 184 185 295 261 239 228 250 225 209 152 53 154 98 305 89 28 348 350 324 112 90 68 107
343 357 2 102 142 77 236 250 313 315 318 290 268 285 278 271 244 268 250 220 206 209 216 166 177 258 345 196 226 243 223 198 131 138 136 185 228 155 50 18 23 4 58 90 75
353 345 149 316 226 201 339 6 305 295 319 264 229 277 289 106 285 342 264 277 19 68 182 183 151 218 229 259 326 228 270 157 152 188 159 114 252 118 69 46 13 44 59 63 71
324 275 333 354 34 355 308 301 294 322 322 297 256 198 270 276 254 231 200 307 164 300 199 166 126 118 335 352 249 200 233 219 99 126 200 161 222 168 87 53 2 40 57 69 71
322 329 334 6 39 355 317 307 340 345 314 343 306 282 320 265 204 289 223 166 199 200 333 40 157 182 178 163 243 168 196 115 155 132 148 186 148 142 112 130 56 38 75 65 61
267 344 34 314 330 318 311 327 334 339 330 308 259 245 40 288 286 234 210 138 221 99 280 326 185 140 69 323 2 3 98 115 103 123 132 185 147 161 148 144 148 189 111 99 92
353 342 347 287 283 308 307 327 316 330 328 313 310 294 188 227 252 302 325 212 201 156 282 312 49 111 350 309 222 252 135 113 107 102 96 88 110 153 140 139 139 122 168 101 107
332 295 262 277 288 320 293 331 315 331 302 317 315 280 242 288 300 266 274 264 267 150 211 127 138 138 181 173 167 238 180 187 149 147 144 170 134 142 134 122 191 141 134 122 122